Regional Weather Roundup
Issued by NWS

Home | Current Version | Previous Version | Graphics & Text | Print | Product List | Glossary On
Versions: 1 2 3 4 5 6 7 8 9 10 11 12 13 14 15 16 17 18 19 20 21 22 23 24 25 26 27 28 29 30 31 32 33 34 35 36 37 38 39 40 41 42 43 44 45 46 47 48 49 50
000
ASUS43 KFSD 281910
RWRSD

WEATHER ROUNDUP FOR SOUTH DAKOTA
NATIONAL WEATHER SERVICE SIOUX FALLS SD
200 PM CDT SUN AUG 28 2016

NOTE: "FAIR" INDICATES FEW OR NO CLOUDS BELOW 12,000 FEET WITH NO
SIGNIFICANT WEATHER AND/OR OBSTRUCTIONS TO VISIBILITY.


SDZ001>005-009-010-012>017-282000-
NORTHWEST AND NORTH CENTRAL SOUTH DAKOTA

CITY           SKY/WX    TMP DP  RH WIND       PRES   REMARKS
BUFFALO          N/A     92  36  14 S8        29.90S
FAITH            N/A     89  52  28 VRB3      29.94F
MOBRIDGE       SUNNY     88  63  43 SE15      29.89F
$$

SDZ012>016-024>037-041>051-057-063-072>074-282000-
SOUTHWEST AND SOUTH CENTRAL SOUTH DAKOTA

CITY           SKY/WX    TMP DP  RH WIND       PRES   REMARKS
RAPID CTY ARPT SUNNY     88  50  27 E8        29.99F
PIERRE         SUNNY     92  60  34 S14       29.89F
CUSTER         SUNNY     82  29  14 W10       30.14F
ELLSWORTH AFB  SUNNY     86  52  30 SE7       29.99S
PHILIP         SUNNY     90  54  29 SW8       29.93S
PINE RIDGE     SUNNY     89  48  24 S8        30.01F
WINNER         FAIR      95  62  33 S20       29.97F HX  96
$$

SDZ004>011-016>023-039-040-282000-
NORTHEAST SOUTH DAKOTA

CITY           SKY/WX    TMP DP  RH WIND       PRES   REMARKS
ABERDEEN       SUNNY     88  70  55 S17G24    29.93F
WATERTOWN      SUNNY     85  72  65 S18G26    30.01F
BROOKINGS      SUNNY     85  73  67 S21       30.04F
SISSETON         N/A     83  71  67 S20G25    29.96F
$$

SDZ017-020-022-023-036>040-048>070-282000-
SOUTHEAST SOUTH DAKOTA

CITY           SKY/WX    TMP DP  RH WIND       PRES   REMARKS
SIOUX FALLS    MOSUNNY   86  72  62 S16G25    30.05F
HURON          SUNNY     88  69  53 S15G26    29.95F
CHAMBERLAIN    SUNNY     94  66  39 S12G21    29.96S HX  97
MITCHELL       SUNNY     88  71  57 SE20      29.99F
YANKTON        SUNNY     90  70  51 SE17G23   30.01F HX  95
$$

ABBREVIATIONS USED IN REMARKS
   TC - TEMPERATURE IN CELSIUS
  WCI - WIND CHILL INDEX
   HX - HEAT INDEX
  VSB - VISIBILITY




USA.gov is the U.S. government's official web portal to all federal, state and local government web resources and services.